Preview of NWS' New Version of Forecast
This preview is not operational and should not be used for support decisions.

Regional Weather Roundup (RWR)

Issued by National Weather Service (NWS)

                            
000
ASUS42 KTBW 241316
RWRFL 
FLORIDA REGIONAL WEATHER ROUNDUP
NATIONAL WEATHER SERVICE TAMPA BAY RUSKIN FL
900 AM EDT SUN MAR 24 2019

NOTE: "FAIR" INDICATES FEW OR NO CLOUDS BELOW 12,000 FEET WITH NO
SIGNIFICANT WEATHER AND/OR OBSTRUCTIONS TO VISIBILITY.

FLZ001>010-012>015-112-114-115-241400-
PANHANDLE FLORIDA
  
CITY           SKY/WX    TMP DP  RH WIND       PRES   REMARKS
PENSACOLA      FAIR      54  51  90 NE6       30.23S                  
PENSACOLA NAS  FAIR      54  53  97 CALM      30.23R                  
MILTON NAS     FAIR      49  47  93 NE3       30.25R                  
CRESTVIEW      FAIR      44  40  85 CALM      30.26S                  
PANAMA CITY    FAIR      49  47  93 NW3       30.25R FOG              
APALACHICOLA   FAIR      56  51  84 NE6       30.23S                  

STATION/POSITION SKY/WX   TEMP    WIND        PRES    WAVE   SWELL
                          AIR SEA DIR/SP/G            HT/PER HT/PER
                          (F)     (DEG/KT/KT) (MB)    (FT/S) (FT/S)
30.1N   87.6W                                 1024.0R   0
29.2N   88.2W                     110/  4/  4 1023.8R   1/ 4
PANAMA CITY BEAC           56 65              1024.6R
TOWER C                    64     110/ 12/ 13 1024.0R

$$
FLZ011-016>038-118-127-128-134-139-239-241400-
NORTH FLORIDA
  
CITY           SKY/WX    TMP DP  RH WIND       PRES   REMARKS
MARIANNA       FAIR      49  46  90 CALM      30.25R                  
TALLAHASSEE    FAIR      50  44  80 CALM      30.25S                  
PERRY          FAIR      57  46  66 E5        30.27R                  
LIVE OAK       SUNNY     52  50  93 CALM      30.27R                  
CROSS CITY     FAIR      56  49  79 E5        30.25F                  
LAKE CITY      FAIR      54  50  87 E6        30.27R                  
GAINESVILLE    FAIR      57  51  80 SE3       30.29S                  
WILLISTON        N/A    N/A N/A N/A MISG        N/A                   
PALATKA        FAIR     N/A N/A N/A CALM      30.28S                  
MAYPORT NAS    FAIR      63  58  83 CALM      30.28R                  
JACKSONVILLE   PTSUNNY   51  49  92 CALM      30.28R                  
JAX NAS        PTSUNNY   60  52  74 CALM      30.29R                  
JAX CECIL      SUNNY    N/A N/A N/A CALM      30.28R                  
FERNANDINA BEA FAIR      58  56  92 CALM      30.28S                  
ST AUGUSTINE   FAIR      58  54  86 CALM      30.29R                  
PALM COAST     SUNNY     55  54  94 CALM      30.28R                  

STATION/POSITION SKY/WX   TEMP    WIND        PRES    WAVE   SWELL
                          AIR SEA DIR/SP/G            HT/PER HT/PER
                          (F)     (DEG/KT/KT) (MB)    (FT/S) (FT/S)
SHELL POINT      NOT AVBL
KEATON BEACH               56      70/ 10/ 11 1024.6R
CEDAR KEY                  60      90/ 11/ 12 1024.5R
FERNANDINA                 60 63              1026.1R
30.7N   81.3W                 62                N/A     2/11
MAYPORT                    60 64              1025.2R
31.4N   80.9W              64 62   90/  8/ 10 1025.8R   3/11   2/11
ST AUGUSTINE               65 63   80/  6/  6 1025.6R

$$
FLZ040-043>046-052-053-057-058-063-144-241400-
INTERIOR CENTRAL FLORIDA
  
CITY           SKY/WX    TMP DP  RH WIND       PRES   REMARKS
OCALA          FAIR      55  51  86 NE3       30.27S                  
LEESBURG       FAIR      62  52  69 E6        30.27R                  
SANFORD        FAIR      62  56  80 NE6       30.27R                  
ORLANDO EXEC   FAIR      63  57  81 NE6       30.26R                  
ORLANDO INTL   PTSUNNY   64  57  78 NE7       30.26S                  
KISSIMMEE      FAIR      63  58  83 E6        30.27R                  
WINTER HAVEN   FAIR      64  59  83 NE5       30.27R                  
LAKELAND       SUNNY     63  57  82 E6        30.26R                  
BARTOW         SUNNY     64  59  82 E3        30.25R                  
SEBRING        FAIR      62  59  89 NE7       30.25R                  
OKEECHOBEE     FAIR      63  59  88 E3        30.24R                  

$$
FLZ041-047-054-059-064-141-147-241400-
EAST CENTRAL FLORIDA
  
CITY           SKY/WX    TMP DP  RH WIND       PRES   REMARKS
ORMOND BEACH   SUNNY     57  57 100 CALM      30.28R                  
DAYTONA BEACH  CLOUDY    61  59  93 CALM      30.28R                  
DELAND         FAIR      59  55  88 NE5       30.27S                  
NEW SMYRNA BEA SUNNY     63  57  82 CALM      30.29R                  
TITUSVILLE     MOSUNNY   70  61  73 VRB5      30.27R                  
MELBOURNE      FAIR      70  60  70 E7        30.25R                  
VERO BEACH     FAIR      69  61  75 E5        30.25R                  
FT PIERCE      PTSUNNY   68  62  81 CALM      30.24R                  
STUART         PTSUNNY   73  55  53 E9        30.24R                  

STATION/POSITION SKY/WX   TEMP    WIND        PRES    WAVE   SWELL
                          AIR SEA DIR/SP/G            HT/PER HT/PER
                          (F)     (DEG/KT/KT) (MB)    (FT/S) (FT/S)
28.5N   80.2W              71      90/ 10/ 14 1025.2
28.9N   78.5W              71 74  100/ 10/ 14 1025.4R   4/ 8   3/ 8
TRIDENT PIER               65 67              1025.5R
28.4N   80.5W                 67                N/A     2/12   2/12
27.5N   80.2W                 69                N/A     3/11   2/11

$$
FLZ050-056-061-142-242-148-248-149-249-151-251-155-255-
160-260-241400-
WEST CENTRAL FLORIDA
  
CITY           SKY/WX    TMP DP  RH WIND       PRES   REMARKS
CRYSTAL RIVER  FAIR      57  52  82 E5        30.26R                  
INVERNESS      FAIR      55  54  94 CALM      30.27R                  
BROOKSVILLE    FAIR      60  54  80 E6        30.26R                  
CLEARWATER AIR FAIR      61  54  77 E5        30.25R                  
ST PETE CLEARW FAIR      64  58  80 E6        30.24R                  
TAMPA INTL     PTSUNNY   62  55  77 NE6       30.25R                  
TAMPA EXEC     FAIR      55  55 100 CALM      30.26R                  
PLANT CITY     FAIR      63  59  88 CALM      30.27R                  
PETER O KNIGHT FAIR      63  59  88 E6        30.25R                  
ST PETERSBURG  FAIR      66  59  78 E9        30.23R                  
SARASOTA       FAIR      62  56  80 E8        30.21S                  
VENICE         FAIR      63  59  88 NE8       30.23S                  

STATION/POSITION SKY/WX   TEMP    WIND        PRES    WAVE   SWELL
                          AIR SEA DIR/SP/G            HT/PER HT/PER
                          (F)     (DEG/KT/KT) (MB)    (FT/S) (FT/S)
27.3N   84.2W                 72                N/A     2/ 3
CLEARWATER BEACH           63 69              1023.9R
MIDDLE TAMPA BAY           62                 1023.9R
VENICE                     62 71   70/  6/  8 1023.5R

$$
FLZ066-069-070-075>078-162-262-165-265-241400-
SOUTHWEST FLORIDA AND KEYS
  
CITY           SKY/WX    TMP DP  RH WIND       PRES   REMARKS
PUNTA GORDA    FAIR      62  58  86 E6        30.24R                  
FT MYERS       FAIR      64  59  83 E7        30.21R                  
SOUTHWEST INTL FAIR      64  59  83 E8        30.21R                  
NAPLES         FAIR      65  59  81 NE8       30.20R                  
MARCO ISLAND   FAIR      64  58  80 E6        30.21R                  
IMMOKALEE      FAIR      64  61  88 NE7       30.20R                  
MARATHON       FAIR      77  63  61 E9        30.17R                  
KEY WEST NAS   PTSUNNY   75  67  76 E7        30.17R                  
KEY WEST INTL  DRIZZLE   72  67  84 NE6       30.17R                  

STATION/POSITION SKY/WX   TEMP    WIND        PRES    WAVE   SWELL
                          AIR SEA DIR/SP/G            HT/PER HT/PER
                          (F)     (DEG/KT/KT) (MB)    (FT/S) (FT/S)
NAPLES                     64 71              1022.3R
26.0N   85.6W              71     130/  4/ 10 1022.2R
DRY TORTUGAS               74      80/ 15/ 17 1021.6R
SAND KEY                   73                 1021.3R
SOMBRERO KEY               75                 1020.9R
MOLASSES REEF              74     100/ 17     1021.7

$$
FLZ067-068-071>074-168-172>174-241400-
SOUTHEAST FLORIDA 
  
CITY           SKY/WX    TMP DP  RH WIND       PRES   REMARKS
W PALM BEACH   PTSUNNY   71  54  54 E13       30.24R                  
BOCA RATON     PTSUNNY   73  59  60 E12       30.22R                  
FT LAUDER-EXEC FAIR      76  55  48 E16       30.21R                  
FT LAUDERDALE  PTSUNNY   74  56  53 E16       30.21R                  
POMPANO BEACH  PTSUNNY   76  55  48 E13       30.22R                  
PEMBROKE PINES FAIR      74  58  57 E10       30.23R                  
OPA LOCKA      FAIR      73  57  57 E9        30.22R                  
MIAMI          PTSUNNY   73  58  59 E9        30.21R                  
WEST KENDALL   FAIR      72  60  66 NE7       30.21R                  
HOMESTEAD      NOT AVBL                                               

STATION/POSITION SKY/WX   TEMP    WIND        PRES    WAVE   SWELL
                          AIR SEA DIR/SP/G            HT/PER HT/PER
                          (F)     (DEG/KT/KT) (MB)    (FT/S) (FT/S)
VIRGINIA KEY               73 74              1022.2R
LAKE WORTH                 72 74              1024.6R
FOWEY ROCKS                73 77   80/ 18/ 20 1023.4R
SETTLEMENT POINT           71     100/  9/ 11 1024.5R

$$